PGT248 LTFJ-LTFD

Flight info

Callsign PGT248
Flight time 0h 39m
Altitude 24000
Route IVGUS Y227 RAUMA G80 KONEN
Aircraft A20N/M-SDE2E3FGHIRWXY/LB1

Departure

Time 2026-05-06 09:34
Airport Istanbul Sabiha Gökçen International Airport (LTFJ)

Arrival

Time 2026-05-06 10:13
Airport Balıkesir Koca Seyit Airport (LTFD)
Time Latitude Longitude Altitude Speed Heading
2026-05-06 08:51 40.90602 29.31634 320 ft 0 kts 333°
2026-05-06 09:17 40.90591 29.31641 320 ft 2 kts 338°
2026-05-06 09:17 40.90581 29.31647 320 ft 0 kts 331°
2026-05-06 09:18 40.90569 29.31656 320 ft 2 kts 316°
2026-05-06 09:18 40.90560 29.31672 320 ft 2 kts 300°
2026-05-06 09:18 40.90554 29.31690 320 ft 2 kts 283°
2026-05-06 09:18 40.90552 29.31710 320 ft 2 kts 265°
2026-05-06 09:19 40.90555 29.31730 320 ft 1 kts 248°
2026-05-06 09:19 40.90558 29.31738 320 ft 1 kts 242°
2026-05-06 09:19 40.90559 29.31741 320 ft 0 kts 243°
2026-05-06 09:25 40.90557 29.31734 320 ft 1 kts 243°
2026-05-06 09:26 40.90550 29.31716 320 ft 2 kts 243°
2026-05-06 09:26 40.90539 29.31688 320 ft 4 kts 243°
2026-05-06 09:26 40.90524 29.31650 320 ft 5 kts 243°
2026-05-06 09:26 40.90505 29.31601 320 ft 6 kts 242°
2026-05-06 09:27 40.90482 29.31544 320 ft 7 kts 242°
2026-05-06 09:27 40.90455 29.31477 320 ft 8 kts 241°
2026-05-06 09:27 40.90409 29.31445 320 ft 8 kts 163°
2026-05-06 09:27 40.90350 29.31478 320 ft 9 kts 152°
2026-05-06 09:28 40.90286 29.31491 320 ft 9 kts 206°
2026-05-06 09:28 40.90248 29.31419 320 ft 10 kts 243°
2026-05-06 09:28 40.90214 29.31331 320 ft 11 kts 243°
2026-05-06 09:28 40.90178 29.31236 320 ft 12 kts 244°
2026-05-06 09:29 40.90139 29.31122 320 ft 14 kts 243°
2026-05-06 09:29 40.90091 29.30995 320 ft 16 kts 243°
2026-05-06 09:29 40.90039 29.30854 320 ft 17 kts 243°
2026-05-06 09:29 40.89983 29.30702 320 ft 18 kts 244°
2026-05-06 09:30 40.89924 29.30540 320 ft 19 kts 243°
2026-05-06 09:30 40.89861 29.30374 320 ft 20 kts 245°
2026-05-06 09:30 40.89800 29.30201 320 ft 21 kts 244°
2026-05-06 09:30 40.89732 29.30023 320 ft 22 kts 239°
2026-05-06 09:31 40.89663 29.29841 320 ft 22 kts 243°
2026-05-06 09:31 40.89599 29.29656 320 ft 22 kts 245°
2026-05-06 09:31 40.89534 29.29479 320 ft 18 kts 244°
2026-05-06 09:31 40.89482 29.29338 320 ft 17 kts 242°
2026-05-06 09:32 40.89413 29.29265 320 ft 11 kts 175°
2026-05-06 09:32 40.89349 29.29287 320 ft 9 kts 155°
2026-05-06 09:32 40.89294 29.29334 320 ft 9 kts 126°
2026-05-06 09:32 40.89302 29.29415 320 ft 9 kts 63°
2026-05-06 09:33 40.89383 29.29638 320 ft 60 kts 63°
2026-05-06 09:33 40.89685 29.30450 320 ft 129 kts 66°
2026-05-06 09:33 40.90173 29.31725 441 ft 170 kts 63°
2026-05-06 09:33 40.90732 29.33193 792 ft 191 kts 63°
2026-05-06 09:34 40.91403 29.34866 1059 ft 222 kts 63°
2026-05-06 09:34 40.92123 29.36918 1244 ft 260 kts 65°
2026-05-06 09:34 40.92884 29.39257 1477 ft 294 kts 72°
2026-05-06 09:34 40.93007 29.42057 1802 ft 321 kts 103°
2026-05-06 09:35 40.91929 29.44607 2810 ft 321 kts 136°
2026-05-06 09:35 40.90064 29.46063 4125 ft 309 kts 162°
2026-05-06 09:35 40.88021 29.46865 5276 ft 305 kts 163°
2026-05-06 09:35 40.86064 29.47731 6470 ft 297 kts 160°
2026-05-06 09:36 40.84083 29.48261 7507 ft 293 kts 184°
2026-05-06 09:36 40.82131 29.47529 8386 ft 291 kts 213°
2026-05-06 09:36 40.80701 29.45716 9168 ft 288 kts 243°
2026-05-06 09:36 40.80085 29.43267 9934 ft 285 kts 265°
2026-05-06 09:37 40.79813 29.40646 10545 ft 296 kts 266°
2026-05-06 09:37 40.79518 29.37842 10971 ft 314 kts 265°
2026-05-06 09:37 40.79200 29.34935 11346 ft 333 kts 265°
2026-05-06 09:37 40.78851 29.31840 11691 ft 351 kts 265°
2026-05-06 09:38 40.78475 29.28586 12003 ft 369 kts 264°
2026-05-06 09:38 40.78078 29.25192 12305 ft 385 kts 264°
2026-05-06 09:38 40.77660 29.21663 12840 ft 393 kts 264°
2026-05-06 09:38 40.77497 29.20302 13099 ft 395 kts 264°
2026-05-06 09:39 40.77226 29.18035 13537 ft 397 kts 264°
2026-05-06 09:39 40.76794 29.14442 14198 ft 400 kts 264°
2026-05-06 09:39 40.76361 29.10824 14861 ft 404 kts 264°
2026-05-06 09:39 40.75917 29.07134 15501 ft 407 kts 264°
2026-05-06 09:40 40.75474 29.03464 16119 ft 410 kts 265°
2026-05-06 09:40 40.75024 28.99738 16747 ft 413 kts 264°
2026-05-06 09:40 40.74111 28.92197 17804 ft 422 kts 264°
2026-05-06 09:41 40.73640 28.88330 18261 ft 429 kts 264°
2026-05-06 09:41 40.73166 28.84450 18785 ft 432 kts 264°
2026-05-06 09:41 40.72687 28.80559 19351 ft 434 kts 264°
2026-05-06 09:41 40.72200 28.76607 19871 ft 436 kts 264°
2026-05-06 09:42 40.71711 28.72651 20381 ft 439 kts 264°
2026-05-06 09:42 40.71216 28.68646 20894 ft 441 kts 264°
2026-05-06 09:42 40.70721 28.64659 21471 ft 441 kts 264°
2026-05-06 09:42 40.70231 28.60727 22061 ft 441 kts 264°
2026-05-06 09:43 40.69733 28.56740 22559 ft 443 kts 264°
2026-05-06 09:43 40.69233 28.52733 22995 ft 445 kts 264°
2026-05-06 09:43 40.68726 28.48691 23439 ft 448 kts 264°
2026-05-06 09:43 40.68215 28.44627 23879 ft 450 kts 264°
2026-05-06 09:44 40.67696 28.40509 24059 ft 458 kts 264°
2026-05-06 09:44 40.67167 28.36328 24058 ft 468 kts 264°
2026-05-06 09:44 40.66629 28.32075 24064 ft 476 kts 264°
2026-05-06 09:44 40.66077 28.27723 24061 ft 483 kts 264°
2026-05-06 09:45 40.65519 28.23354 24064 ft 489 kts 264°
2026-05-06 09:45 40.64951 28.18923 24137 ft 492 kts 264°
2026-05-06 09:45 40.64384 28.14542 24447 ft 489 kts 264°
2026-05-06 09:45 40.63808 28.10145 24811 ft 483 kts 264°
2026-05-06 09:46 40.63244 28.05867 24827 ft 467 kts 264°
2026-05-06 09:46 40.62705 28.01707 24844 ft 467 kts 264°
2026-05-06 09:46 40.62152 27.97404 24688 ft 476 kts 264°
2026-05-06 09:46 40.61597 27.93105 24836 ft 479 kts 264°
2026-05-06 09:47 40.61033 27.88794 25127 ft 478 kts 264°
2026-05-06 09:47 40.60477 27.84578 25116 ft 472 kts 264°
2026-05-06 09:47 40.59919 27.80368 24901 ft 459 kts 264°
2026-05-06 09:47 40.59374 27.76285 24478 ft 447 kts 264°
2026-05-06 09:48 40.58850 27.72337 24142 ft 444 kts 264°
2026-05-06 09:48 40.58320 27.68328 24082 ft 446 kts 264°
2026-05-06 09:48 40.57440 27.64392 24040 ft 456 kts 248°
2026-05-06 09:48 40.55546 27.60991 24055 ft 468 kts 227°
2026-05-06 09:49 40.52873 27.58550 24058 ft 477 kts 210°
2026-05-06 09:49 40.49752 27.56932 24064 ft 481 kts 203°
2026-05-06 09:49 40.46597 27.55428 24067 ft 481 kts 203°
2026-05-06 09:49 40.43440 27.53895 24067 ft 480 kts 204°
2026-05-06 09:50 40.40306 27.52335 24067 ft 481 kts 204°
2026-05-06 09:50 40.37211 27.50769 24065 ft 481 kts 205°
2026-05-06 09:50 40.34090 27.49175 24055 ft 478 kts 205°
2026-05-06 09:50 40.31015 27.47598 23671 ft 474 kts 205°
2026-05-06 09:51 40.27962 27.46028 22663 ft 478 kts 205°
2026-05-06 09:51 40.24874 27.44438 21682 ft 480 kts 205°
2026-05-06 09:51 40.21791 27.42855 21069 ft 473 kts 205°
2026-05-06 09:51 40.18722 27.41283 20460 ft 467 kts 205°
2026-05-06 09:52 40.15756 27.39763 19867 ft 461 kts 204°
2026-05-06 09:52 40.12764 27.38232 19275 ft 455 kts 204°
2026-05-06 09:52 40.09842 27.36738 18683 ft 450 kts 204°
2026-05-06 09:52 40.06967 27.35270 18114 ft 445 kts 204°
2026-05-06 09:53 40.04063 27.33781 17545 ft 440 kts 204°
2026-05-06 09:53 40.01222 27.32342 16970 ft 437 kts 202°
2026-05-06 09:53 39.98368 27.31161 16383 ft 435 kts 197°
2026-05-06 09:53 39.95403 27.30284 15765 ft 433 kts 191°
2026-05-06 09:54 39.92445 27.29691 15170 ft 430 kts 189°
2026-05-06 09:54 39.89460 27.29162 14572 ft 427 kts 188°
2026-05-06 09:54 39.86503 27.28641 13977 ft 424 kts 188°
2026-05-06 09:54 39.83615 27.28073 13380 ft 420 kts 193°
2026-05-06 09:55 39.80855 27.26858 12793 ft 414 kts 207°
2026-05-06 09:55 39.78433 27.24929 12220 ft 407 kts 219°
2026-05-06 09:55 39.76252 27.22654 11661 ft 403 kts 222°
2026-05-06 09:55 39.74163 27.20248 11098 ft 399 kts 226°
2026-05-06 09:56 39.72194 27.17696 10765 ft 388 kts 228°
2026-05-06 09:56 39.70345 27.15246 10595 ft 372 kts 228°
2026-05-06 09:56 39.68570 27.12898 10444 ft 358 kts 228°
2026-05-06 09:56 39.66854 27.10635 10326 ft 343 kts 228°
2026-05-06 09:57 39.65205 27.08470 10222 ft 329 kts 228°
2026-05-06 09:57 39.63635 27.06413 10140 ft 315 kts 229°
2026-05-06 09:57 39.62120 27.04431 9992 ft 305 kts 229°
2026-05-06 09:57 39.60637 27.02488 9653 ft 303 kts 229°
2026-05-06 09:58 39.59169 27.00560 9330 ft 302 kts 229°
2026-05-06 09:58 39.57686 26.98603 8991 ft 301 kts 229°
2026-05-06 09:58 39.56240 26.96680 8627 ft 299 kts 229°
2026-05-06 09:58 39.54796 26.94746 8277 ft 296 kts 229°
2026-05-06 09:59 39.53375 26.92834 7927 ft 294 kts 229°
2026-05-06 09:59 39.51974 26.90941 7560 ft 292 kts 229°
2026-05-06 09:59 39.50573 26.89038 7202 ft 290 kts 229°
2026-05-06 09:59 39.49199 26.87159 6861 ft 288 kts 229°
2026-05-06 10:00 39.47831 26.85282 6512 ft 286 kts 229°
2026-05-06 10:00 39.46472 26.83409 6153 ft 284 kts 229°
2026-05-06 10:00 39.45124 26.81544 5798 ft 283 kts 229°
2026-05-06 10:00 39.43784 26.79683 5445 ft 281 kts 229°
2026-05-06 10:01 39.42468 26.77845 5103 ft 279 kts 229°
2026-05-06 10:01 39.41157 26.76014 4761 ft 277 kts 229°
2026-05-06 10:01 39.39871 26.74209 4438 ft 274 kts 229°
2026-05-06 10:01 39.38585 26.72399 4099 ft 273 kts 229°
2026-05-06 10:02 39.37118 26.70848 3731 ft 273 kts 206°
2026-05-06 10:02 39.35298 26.70315 3420 ft 269 kts 179°
2026-05-06 10:02 39.33492 26.70848 3116 ft 263 kts 150°
2026-05-06 10:02 39.32207 26.72369 3062 ft 246 kts 121°
2026-05-06 10:03 39.31452 26.74257 3052 ft 229 kts 107°
2026-05-06 10:03 39.31337 26.76211 3053 ft 215 kts 79°
2026-05-06 10:03 39.31707 26.78100 3058 ft 216 kts 64°
2026-05-06 10:03 39.32600 26.79607 3063 ft 214 kts 41°
2026-05-06 10:04 39.33764 26.80838 3060 ft 215 kts 37°
2026-05-06 10:04 39.35007 26.81907 3063 ft 215 kts 27°
2026-05-06 10:04 39.36365 26.82721 3065 ft 215 kts 23°
2026-05-06 10:04 39.37753 26.83470 3068 ft 216 kts 22°
2026-05-06 10:05 39.39133 26.84201 3068 ft 215 kts 22°
2026-05-06 10:05 39.40533 26.84941 3066 ft 215 kts 22°
2026-05-06 10:05 39.41915 26.85668 3055 ft 216 kts 22°
2026-05-06 10:05 39.43304 26.86396 3000 ft 214 kts 22°
2026-05-06 10:06 39.44689 26.87120 2981 ft 215 kts 22°
2026-05-06 10:06 39.46086 26.87849 2973 ft 215 kts 22°
2026-05-06 10:06 39.47475 26.88560 2971 ft 215 kts 17°
2026-05-06 10:06 39.48901 26.89148 2955 ft 215 kts 30°
2026-05-06 10:07 39.49927 26.90512 2962 ft 215 kts 62°
2026-05-06 10:07 39.50196 26.92390 2952 ft 220 kts 103°
2026-05-06 10:07 39.49394 26.94090 2962 ft 230 kts 143°
2026-05-06 10:07 39.47900 26.94731 2967 ft 232 kts 184°
2026-05-06 10:08 39.46420 26.93973 2969 ft 231 kts 225°
2026-05-06 10:08 39.45546 26.92245 2988 ft 231 kts 249°
2026-05-06 10:08 39.45121 26.90250 2977 ft 231 kts 264°
2026-05-06 10:08 39.45084 26.88173 2970 ft 231 kts 278°
2026-05-06 10:09 39.45424 26.86163 2971 ft 230 kts 290°
2026-05-06 10:09 39.46062 26.84278 2965 ft 228 kts 302°
2026-05-06 10:09 39.47176 26.82847 2947 ft 224 kts 335°
2026-05-06 10:09 39.48660 26.82456 2857 ft 219 kts
2026-05-06 10:10 39.50061 26.83184 2510 ft 220 kts 41°
2026-05-06 10:10 39.50894 26.84789 2379 ft 214 kts 68°
2026-05-06 10:10 39.51342 26.86505 2441 ft 190 kts 72°
2026-05-06 10:10 39.51692 26.88048 2363 ft 166 kts 72°
2026-05-06 10:11 39.51997 26.89419 2378 ft 152 kts 73°
2026-05-06 10:11 39.52260 26.90689 2294 ft 145 kts 80°
2026-05-06 10:11 39.52351 26.91962 1938 ft 145 kts 82°
2026-05-06 10:11 39.52517 26.93290 1418 ft 153 kts 78°
2026-05-06 10:12 39.52731 26.94637 996 ft 152 kts 76°
2026-05-06 10:12 39.52977 26.95938 660 ft 147 kts 73°
2026-05-06 10:12 39.53275 26.97164 437 ft 140 kts 65°
2026-05-06 10:12 39.53753 26.98280 303 ft 141 kts 56°
2026-05-06 10:13 39.54281 26.99336 121 ft 140 kts 54°
2026-05-06 10:13 39.54843 27.00330 47 ft 126 kts 52°
2026-05-06 10:13 39.55290 27.01094 50 ft 80 kts 51°
2026-05-06 10:13 39.55550 27.01551 51 ft 47 kts 50°
2026-05-06 10:14 39.55711 27.01828 53 ft 32 kts 53°
2026-05-06 10:14 39.55833 27.02037 58 ft 26 kts 53°
2026-05-06 10:14 39.55939 27.02216 61 ft 23 kts 52°
2026-05-06 10:14 39.56041 27.02324 64 ft 15 kts 47°
2026-05-06 10:15 39.56006 27.02371 64 ft 10 kts 204°
2026-05-06 10:15 39.55961 27.02290 63 ft 12 kts 236°
2026-05-06 10:15 39.55903 27.02183 61 ft 17 kts 235°
2026-05-06 10:15 39.55817 27.02035 58 ft 23 kts 234°
2026-05-06 10:16 39.55709 27.01844 54 ft 28 kts 234°
2026-05-06 10:16 39.55586 27.01622 52 ft 31 kts 233°
2026-05-06 10:16 39.55447 27.01382 51 ft 34 kts 234°
2026-05-06 10:16 39.55311 27.01141 50 ft 31 kts 235°
2026-05-06 10:17 39.55204 27.00962 48 ft 20 kts 212°
2026-05-06 10:17 39.55091 27.01012 49 ft 13 kts 144°
2026-05-06 10:17 39.55017 27.01080 50 ft 11 kts 144°
2026-05-06 10:17 39.54990 27.01137 52 ft 6 kts 129°
2026-05-06 10:18 39.54958 27.01167 52 ft 3 kts 140°
2026-05-06 10:18 39.54954 27.01171 52 ft 0 kts 142°
2026-05-06 10:18 39.54950 27.01175 52 ft 1 kts 147°
2026-05-06 10:18 39.54944 27.01181 52 ft 0 kts 139°